Lexington Weather

Lexington, Massachusetts, USA

64°F
5/27/2020 2:04am 
  • Lexington Conditions: Clear
  • Temperature: 64.2°F / 17.9°CColder 1.5°F than last hour.
  • Dew Point: 61.2°FDecreased 0.9°Fsince last hour.
  • Relative Humidity: 90%Increased 2.0% since last hour.
  • Wind: Wind from W W Calm, 10-min avg: 2 mph, gust: 8 mph
  • Barometer: 30.14 in Steady
  • Visibility: 10 miles
  • Rain Today: 0.00 in
  •   

Regional Weather Roundup
for Boston / Norton, MA

        
000
ASUS41 KBOX 270504
RWRBOX

REGIONAL WEATHER ROUNDUP
NATIONAL WEATHER SERVICE BOSTON/NORTON MA
100 AM EDT WED MAY 27 2020

NOTE:  "FAIR" INDICATES FEW OR NO CLOUDS BELOW 12,000 FEET WITH NO 
SIGNIFICANT WEATHER AND/OR OBSTRUCTIONS TO VISIBILITY.

MAZALL-270600-
EASTERN MASSACHUSETTS
  
CITY           SKY/WX    TMP DP  RH WIND       PRES   REMARKS
BOSTON         FAIR      62  59  90 SW9       30.19S                  
BEVERLY        FAIR      62  58  86 CALM      30.18S                  
LAWRENCE       FAIR      66  61  84 SW6       30.19S                  
BEDFORD        FAIR      65  61  87 SW6       30.18S                  
BLUE HILL        N/A     60  59  96 S13       30.19S                  
NORWOOD        CLOUDY    63  59  87 S7        30.20S                  
MARSHFIELD     MOCLDY    63  63 100 SW7       30.19F                  
PLYMOUTH       CLOUDY    61  60  97 SW8       30.21S                  
TAUNTON        CLOUDY    62  58  86 VRB6      30.21S                  
NEW BEDFORD    CLOUDY    60  60 100 SW7       30.21F                  
$$

MAZALL-270600-
CAPE COD AND THE ISLANDS
  
CITY           SKY/WX    TMP DP  RH WIND       PRES   REMARKS
FALMOUTH       CLOUDY    61  61 100 SW8       30.22S FOG              
HYANNIS        CLOUDY    61  59  93 SW8       30.21S FOG              
CHATHAM        FOG       57  55  93 SW8       30.23S VSB 1            
PROVINCETOWN   FOG       58  58 100 SW10      30.22R VSB 3/4          
NANTUCKET      FOG       56  55  97 SW5       30.23S VSB 1/2          
MARTHAS VNYRD  FOG       58  58 100 SW3       30.23S VSB 1            
$$
 
MAZALL-270600-
CENTRAL AND WESTERN MASSACHUSETTS
  
CITY           SKY/WX    TMP DP  RH WIND       PRES   REMARKS
WORCESTER      FAIR      63  58  83 W10       30.21S                  
FITCHBURG      FAIR      68  60  75 CALM      30.19S                  
ORANGE         LGT RAIN  64  64 100 CALM      30.21S                  
SPRINGFIELD    FAIR      65  62  88 S7        30.19S                  
WESTFIELD      FAIR      63  60  90 S3        30.19S                  
NORTH ADAMS    FAIR      67  63  87 SE6       30.18S                  
PITTSFIELD     FAIR      65  61  87 CALM      30.20S                  
$$
 
RIZALL-270600-
RHODE ISLAND
  
CITY           SKY/WX    TMP DP  RH WIND       PRES   REMARKS
PROVIDENCE     CLOUDY    62  60  93 SW6       30.22S                  
NEWPORT        FOG       59  58  96 VRB3      30.22S VSB 3/4          
BLOCK ISLAND   LGT RAIN  54  54 100 W6        30.24R VSB 1/2          
SMITHFIELD     CLOUDY    61  61 100 VRB5      30.22S                  
WESTERLY       FOG       59  55  87 CALM      30.23S VSB 1/2          
$$
 
CTZALL-270600-
CONNECTICUT
  
CITY           SKY/WX    TMP DP  RH WIND       PRES   REMARKS
BRADLEY INTL   FAIR      63  60  90 S6        30.20S                  
HARTFORD       FAIR      63  59  87 S5        30.21R                  
BRIDGEPORT     CLOUDY    61  59  93 SW6       30.22R FOG              
DANBURY        FAIR      60  58  92 CALM      30.23R                  
GROTON         FOG       57  57 100 S5        30.22S VSB 1/2          
NEW HAVEN      FOG       61  60  97 SW3       30.22S VSB 1/2          
CHESTER        FOG       61  61 100 CALM      30.23  VSB<1/4          
MERIDEN        CLOUDY    61  58  90 SE6       30.22S                  
WILLIMANTIC    CLOUDY    63  61  93 SW5       30.22S                  
OXFORD         FAIR      59  59 100 CALM      30.23S                  
$$

MEZ002-015-021-024-NHZ003-005-008-011-012-014-VTZ005-008-270600-
NORTHERN NEW ENGLAND
  
CITY           SKY/WX    TMP DP  RH WIND       PRES   REMARKS
PORTLAND ME    FAIR      55  52  89 E3        30.18F                  
BANGOR ME      FOG       57  56  96 S8        30.18S VSB 3/4          
CONCORD NH     FAIR      65  61  87 CALM      30.17S                  
MANCHESTER NH  FAIR      69  63  81 S5        30.16S                  
NASHUA NH      FAIR      65  65 100 CALM      30.18S                  
PORTSMOUTH NH  CLEAR     57  57  98 CALM      30.16S                  
JAFFREY NH     FAIR      64  59  83 S3        30.21F                  
KEENE NH       FAIR      64  63  96 CALM      30.20S                  
BURLINGTON VT  FAIR      72  62  71 CALM      30.10S                  
MT. WASHINGTON CLEAR     57  52  82 W20         N/A                   
$$

NYZ052-076-270600-
EASTERN NEW YORK
  
CITY           SKY/WX    TMP DP  RH WIND       PRES   REMARKS
ALBANY         FAIR      74  61  63 S8G18     30.16R                  
NEW YORK CITY  CLOUDY    61  57  87 S5        30.21S                  
$$
 
ANZALL-270600-
MARINE OBSERVATIONS
  
STATION/POSITION TIME  TEMP    WIND        PRES    VSBY  WAVE
                       AIR SEA DIR/SP/G                  HT/PER
                 (UTC) (F)     (DEG/KT/KT) (MB)    (MI)  (FT/S)
BOSTON BUOY      0450   56 53  170/  8/  8 1021.5S         2/ 7
BUZZARDS BAY     0400          210/  3/  4 1024.7R
NANTUCKET SOUND  0450   56 55  220/  6/  8 1023.0S         1
MASS BAY-STELLWA 0404   54 46  200/ 10/ 12 1020.1R  1 7/8  3/ 8
ISLE OF SHOALS   0400   61     190/ 13/ 14 1021.4R
S OF BLOCK IS    0430      55                N/A           3/ 7
$$

......................KEY.........................
  SKY/WX - SKY CONDITION/PRESENT WEATHER
  TMP    - TEMPERATURE IN FAHRENHEIT
  DWPT   - DEWPOINT IN FAHRENHEIT
  RH     - RELATIVE HUMIDITY IN PERCENT
  WIND   - DIRECTION AND SPEED IN MPH
  PRES   - MEAN SEA LEVEL PRESSURE IN INCHES OF HG
  WCI    - WIND CHILL INDEX
  VSB    - VISIBILITY IN MILES
  HX     - HEAT INDEX
  TC     - TEMPERATURE IN CELSIUS
  VRB    - VARIABLE WIND DIRECTION
  N/A    - NOT AVAILABLE
  
      

Other recent Regional Weather Roundups

Wed May 27, 12:04am

Tue May 26, 11:04pm

Tue May 26, 10:04pm

Tue May 26, 9:04pm

Tue May 26, 8:04pm

Tue May 26, 7:04pm

Tue May 26, 6:04pm

Tue May 26, 5:05pm

Tue May 26, 4:05pm

Tue May 26, 3:04pm

Tue May 26, 2:04pm

Tue May 26, 1:04pm

Tue May 26, 12:04pm

Tue May 26, 11:05am

Tue May 26, 10:04am

Tue May 26, 9:04am

Tue May 26, 8:04am

Tue May 26, 7:05am

Tue May 26, 6:04am

Tue May 26, 5:04am

Tue May 26, 4:05am

Tue May 26, 3:04am

Tue May 26, 2:04am

Tue May 26, 1:04am

Tue May 26, 12:04am

Mon May 25, 11:04pm

Mon May 25, 10:05pm

Mon May 25, 9:04pm

Mon May 25, 8:04pm

Mon May 25, 7:04pm

Mon May 25, 6:04pm

Mon May 25, 5:04pm

Mon May 25, 4:05pm

Mon May 25, 3:04pm

Mon May 25, 2:04pm

Mon May 25, 1:04pm

Mon May 25, 12:04pm

Mon May 25, 11:05am

Mon May 25, 10:04am

Mon May 25, 9:04am

Mon May 25, 8:04am

Mon May 25, 7:04am

Mon May 25, 6:05am

Mon May 25, 5:05am

Mon May 25, 4:04am

Mon May 25, 3:04am

Mon May 25, 2:05am

Mon May 25, 1:04am

Mon May 25, 12:04am

Sun May 24, 11:04pm

Sun May 24, 10:04pm

Sun May 24, 9:04pm

Sun May 24, 8:05pm

Sun May 24, 7:04pm

Sun May 24, 6:04pm

Sun May 24, 5:05pm

Sun May 24, 4:05pm

Sun May 24, 3:04pm

Sun May 24, 2:05pm

Sun May 24, 1:04pm

Sun May 24, 12:04pm

Sun May 24, 11:05am

Sun May 24, 10:04am

Sun May 24, 9:05am

Sun May 24, 8:04am

Sun May 24, 7:04am

Sun May 24, 6:04am

Sun May 24, 5:05am

Sun May 24, 4:04am

Sun May 24, 3:04am

Sun May 24, 2:04am

Sun May 24, 1:04am

Sun May 24, 12:04am

Sat May 23, 11:04pm

Sat May 23, 10:05pm

Sat May 23, 9:04pm

Sat May 23, 8:05pm

Sat May 23, 7:04pm

Sat May 23, 6:04pm

Sat May 23, 5:04pm

Sat May 23, 4:04pm

Sat May 23, 3:05pm

Sat May 23, 2:04pm

Sat May 23, 1:05pm

Sat May 23, 12:04pm

Sat May 23, 11:05am

Sat May 23, 10:04am

Sat May 23, 9:04am

Sat May 23, 8:04am

Sat May 23, 7:04am

Sat May 23, 6:04am

Sat May 23, 5:04am

Sat May 23, 4:04am

Sat May 23, 3:04am

Sat May 23, 2:04am

Sat May 23, 1:04am

Sat May 23, 12:04am

Fri May 22, 11:04pm

Fri May 22, 10:04pm

Fri May 22, 9:04pm

Fri May 22, 8:04pm

Fri May 22, 7:04pm

Fri May 22, 6:04pm

Fri May 22, 5:05pm

Fri May 22, 4:05pm

Fri May 22, 3:04pm

Fri May 22, 2:04pm

Fri May 22, 1:05pm

Fri May 22, 12:05pm

Fri May 22, 11:04am

Fri May 22, 10:05am

Fri May 22, 8:04am

Fri May 22, 7:05am

Fri May 22, 6:04am

Fri May 22, 5:04am

Fri May 22, 4:04am

Fri May 22, 3:04am

Fri May 22, 2:04am

Fri May 22, 1:04am

Fri May 22, 12:04am

Thu May 21, 11:04pm

Thu May 21, 10:05pm

Thu May 21, 9:04pm

Thu May 21, 8:04pm

Thu May 21, 7:04pm

Thu May 21, 6:04pm

Thu May 21, 5:05pm

Thu May 21, 4:04pm

Thu May 21, 3:04pm

Thu May 21, 2:04pm

Thu May 21, 1:04pm

Thu May 21, 12:04pm

Thu May 21, 11:04am

Thu May 21, 10:04am

Thu May 21, 9:05am

Thu May 21, 8:04am

Thu May 21, 7:04am

Thu May 21, 6:04am

Thu May 21, 5:04am

Thu May 21, 4:05am

Thu May 21, 3:04am

Thu May 21, 2:04am

Thu May 21, 1:04am

Thu May 21, 12:04am

Wed May 20, 11:05pm

Wed May 20, 10:04pm

Wed May 20, 9:04pm

Wed May 20, 8:04pm

Wed May 20, 7:05pm

Wed May 20, 6:05pm

Wed May 20, 5:05pm

Wed May 20, 4:04pm

Wed May 20, 3:04pm

Wed May 20, 2:04pm

Wed May 20, 1:05pm

Wed May 20, 12:04pm

Wed May 20, 11:05am

Wed May 20, 10:04am

Wed May 20, 9:04am

Wed May 20, 8:04am

Wed May 20, 7:04am

Wed May 20, 6:04am

Wed May 20, 5:04am

Wed May 20, 4:04am

Wed May 20, 3:04am

Wed May 20, 2:04am

Meta data:

ID: bff0f62d-b2f3-4fe7-9df4-41c79d45fbbe
Link: https://api.weather.gov/products/bff0f62d-b2f3-4fe7-9df4-41c79d45fbbe